Location: Ariel
(45.9570°N, 122.5700°W)
Time: 01:37:11
(UTC-07:00)

Tiros 1 - Pass Details

Date: 23 July 2019
Orbit: 630 x 664 km, 48.4° (Epoch: 18 August)

Event Time Altitude Azimuth Distance (km) Brightness Sun altitude
Rises 11:11:49 0° 195° (SSW) 2,967 10.7 53.6°
Reaches altitude 10° 11:14:52 10° 175° (S) 2,065 10.2 54.0°
Maximum altitude 11:17:53 17° 135° (SE) 1,668 10.2 54.4°
Drops below altitude 10° 11:20:54 10° 96° (E) 2,080 10.4 54.8°
Sets 11:23:59 0° 76° (ENE) 2,998 10.9 55.3°
